| time (UTC) | temp F | wind direction | speed knots | gust knots | rain 1hr in | rain 24hr in | rain mn in | humidity % | barometer mb |
| 20260505011416 | 51 | 196 | 0.0 | 2.6 | 0.00 | 0.02 | 0.02 | 77 | 1005.6 |
| 20260505005248 | 51 | 217 | 0.0 | 1.7 | 0.00 | 0.02 | 0.02 | 77 | 1005.4 |
| 20260505004248 | 52 | 234 | 0.0 | 1.7 | 0.00 | 0.02 | 0.02 | 75 | 1005.4 |
| 20260505003249 | 53 | 154 | 0.9 | 3.5 | 0.00 | 0.02 | 0.02 | 73 | 1005.1 |
| 20260505002247 | 54 | 160 | 0.0 | 3.5 | 0.00 | 0.02 | 0.02 | 72 | 1004.9 |
| 20260505001718 | 55 | 162 | 0.0 | 0.9 | 0.00 | 0.02 | 0.02 | 68 | 1004.8 |
| 20260505000243 | 56 | 162 | 0.0 | 0.9 | 0.00 | 0.02 | 0.02 | 68 | 1004.5 |
| 20260504235242 | 57 | 162 | 0.0 | 2.6 | 0.00 | 0.02 | 0.02 | 63 | 1004.3 |
| 20260504234718 | 59 | 162 | 0.9 | 2.6 | 0.00 | 0.02 | 0.02 | 64 | 1004.2 |
| 20260504233242 | 60 | 207 | 0.0 | 0.9 | 0.00 | 0.02 | 0.02 | 58 | 1004.3 |
| 20260504232242 | 61 | 207 | 0.0 | 0.0 | 0.00 | 0.02 | 0.02 | 56 | 1004.2 |
| 20260504231715 | 62 | 207 | 0.0 | 1.7 | 0.00 | 0.02 | 0.02 | 53 | 1004.0 |
| 20260504230242 | 63 | 199 | 0.9 | 2.6 | 0.00 | 0.02 | 0.02 | 52 | 1004.0 |
| 20260504225242 | 64 | 252 | 0.9 | 2.6 | 0.00 | 0.02 | 0.02 | 51 | 1003.9 |
| 20260504224243 | 64 | 240 | 1.7 | 5.2 | 0.00 | 0.02 | 0.02 | 50 | 1003.8 |
| 20260504224221 | 64 | 247 | 1.7 | 5.2 | 0.00 | 0.02 | 0.02 | 51 | 1003.9 |
| 20260504222242 | 64 | 299 | 1.7 | 5.2 | 0.00 | 0.02 | 0.02 | 50 | 1003.8 |
| 20260504221241 | 64 | 263 | 1.7 | 4.3 | 0.00 | 0.02 | 0.02 | 51 | 1003.9 |
| 20260504220725 | 64 | 309 | 1.7 | 9.6 | 0.00 | 0.02 | 0.02 | 51 | 1003.9 |
| 20260504220247 | 64 | 309 | 1.7 | 9.6 | 0.00 | 0.02 | 0.02 | 51 | 1003.9 |
| 20260504215717 | 64 | 245 | 2.6 | 9.6 | 0.00 | 0.02 | 0.02 | 51 | 1003.9 |
| 20260504214723 | 64 | 283 | 3.5 | 12.2 | 0.00 | 0.02 | 0.02 | 51 | 1004.0 |
| 20260504214243 | 64 | 283 | 3.5 | 12.2 | 0.00 | 0.02 | 0.02 | 51 | 1004.0 |
| 20260504213241 | 64 | 290 | 4.3 | 13.0 | 0.00 | 0.02 | 0.02 | 53 | 1003.9 |
| 20260504212241 | 64 | 241 | 4.3 | 13.0 | 0.00 | 0.02 | 0.02 | 51 | 1004.0 |
| 20260504211241 | 63 | 279 | 5.2 | 15.6 | 0.00 | 0.02 | 0.02 | 54 | 1004.0 |
| 20260504210242 | 63 | 254 | 6.1 | 13.9 | 0.00 | 0.02 | 0.02 | 51 | 1003.9 |
| 20260504205240 | 64 | 284 | 5.2 | 13.0 | 0.00 | 0.02 | 0.02 | 53 | 1003.9 |
| 20260504204240 | 63 | 290 | 5.2 | 13.0 | 0.00 | 0.02 | 0.02 | 53 | 1003.9 |
| 20260504203240 | 63 | 284 | 5.2 | 12.2 | 0.00 | 0.02 | 0.02 | 53 | 1004.0 |
| 20260504202240 | 63 | 240 | 5.2 | 12.2 | 0.00 | 0.02 | 0.02 | 53 | 1004.0 |
| 20260504201720 | 63 | 221 | 4.3 | 12.2 | 0.00 | 0.02 | 0.02 | 57 | 1004.0 |
| 20260504200240 | 62 | 271 | 5.2 | 11.3 | 0.00 | 0.02 | 0.02 | 55 | 1004.2 |
| 20260504195716 | 62 | 268 | 6.1 | 13.9 | 0.00 | 0.02 | 0.02 | 58 | 1003.9 |
| 20260504194714 | 62 | 273 | 4.3 | 11.3 | 0.00 | 0.02 | 0.02 | 60 | 1004.0 |
| 20260504193234 | 61 | 257 | 4.3 | 9.6 | 0.00 | 0.02 | 0.02 | 64 | 1004.0 |
| 20260504192234 | 61 | 221 | 4.3 | 8.7 | 0.00 | 0.02 | 0.02 | 65 | 1004.1 |
| 20260504191234 | 61 | 242 | 3.5 | 8.7 | 0.00 | 0.02 | 0.02 | 67 | 1004.1 |
| 20260504190235 | 60 | 272 | 2.6 | 7.8 | 0.00 | 0.02 | 0.02 | 69 | 1004.1 |
| 20260504185235 | 58 | 160 | 3.5 | 7.8 | 0.00 | 0.02 | 0.02 | 73 | 1004.2 |
| 20260504184234 | 58 | 215 | 4.3 | 8.7 | 0.00 | 0.02 | 0.02 | 70 | 1004.4 |
| 20260504183234 | 57 | 273 | 3.5 | 7.8 | 0.01 | 0.02 | 0.02 | 74 | 1004.4 |
| 20260504182232 | 56 | 281 | 3.5 | 7.8 | 0.01 | 0.02 | 0.02 | 76 | 1004.4 |
| 20260504181714 | 55 | 240 | 3.5 | 9.6 | 0.01 | 0.02 | 0.02 | 77 | 1004.7 |
| 20260504180232 | 54 | 282 | 4.3 | 9.6 | 0.01 | 0.02 | 0.02 | 77 | 1004.7 |
| 20260504175705 | 53 | 311 | 1.7 | 7.0 | 0.02 | 0.02 | 0.02 | 75 | 1004.8 |
| 20260504174710 | 52 | 260 | 1.7 | 6.1 | 0.02 | 0.02 | 0.02 | 75 | 1004.9 |
| 20260504173232 | 52 | 293 | 2.6 | 7.0 | 0.01 | 0.01 | 0.01 | 76 | 1005.1 |
| 20260504172232 | 53 | 304 | 2.6 | 6.1 | 0.01 | 0.01 | 0.01 | 77 | 1005.2 |
| 20260504171232 | 54 | 304 | 1.7 | 5.2 | 0.01 | 0.01 | 0.01 | 77 | 1004.9 |
| 20260504170235 | 55 | 310 | 1.7 | 9.6 | 0.01 | 0.01 | 0.01 | 76 | 1004.8 |
| 20260504160233 | 57 | 219 | 4.3 | 8.7 | 0.00 | 0.00 | 0.00 | 61 | 1003.7 |
| 20260504150224 | 54 | 159 | 4.3 | 9.6 | 0.00 | 0.03 | 0.00 | 64 | 1004.5 |
| 20260504141227 | 52 | 176 | 2.6 | 7.0 | 0.00 | 0.08 | 0.00 | 66 | 1005.3 |
| 20260504140218 | 51 | 267 | 4.3 | 10.4 | 0.00 | 0.09 | 0.00 | 65 | 1005.4 |
| 20260504130218 | 48 | 253 | 2.6 | 5.2 | 0.00 | 0.11 | 0.00 | 66 | 1006.4 |
| 20260504120212 | 43 | 189 | 1.7 | 5.2 | 0.00 | 0.13 | 0.00 | 73 | 1006.6 |
| 20260504110206 | 34 | 224 | 0.0 | 0.9 | 0.00 | 0.15 | 0.00 | 72 | 1006.5 |
| 20260504100204 | 30 | 225 | 0.0 | 0.0 | 0.00 | 0.15 | 0.00 | 72 | 1006.6 |
| 20260504081152 | 29 | 225 | 0.0 | 0.0 | 0.00 | 0.18 | 0.00 | 75 | 1006.3 |
| 20260504080152 | 29 | 225 | 0.0 | 0.0 | 0.00 | 0.18 | 0.00 | 75 | 1006.3 |
| 20260504070145 | 29 | 225 | 0.0 | 2.6 | 0.00 | 0.18 | 0.00 | 77 | 1006.1 |
| 20260504060144 | 31 | 238 | 0.0 | 0.0 | 0.00 | 0.18 | 0.00 | 78 | 1006.0 |
| 20260504050620 | 32 | 238 | 0.0 | 0.9 | 0.00 | 0.19 | 0.00 | 79 | 1005.9 |
| 20260504045138 | 32 | 238 | 0.0 | 2.6 | 0.00 | 0.19 | 0.00 | 79 | 1005.8 |
| 20260504044136 | 32 | 238 | 0.9 | 2.6 | 0.00 | 0.19 | 0.00 | 79 | 1005.9 |
| 20260504043135 | 33 | 238 | 0.0 | 1.7 | 0.00 | 0.19 | 0.00 | 79 | 1005.9 |
| 20260504042136 | 33 | 238 | 0.0 | 1.7 | 0.00 | 0.19 | 0.00 | 79 | 1005.9 |
| 20260504041136 | 33 | 238 | 0.9 | 1.7 | 0.00 | 0.19 | 0.00 | 79 | 1005.9 |
| 20260504040136 | 33 | 238 | 0.0 | 1.7 | 0.00 | 0.19 | 0.00 | 80 | 1005.8 |
| 20260504035135 | 34 | 238 | 0.0 | 1.7 | 0.00 | 0.19 | 0.19 | 79 | 1005.7 |
| 20260504034134 | 34 | 238 | 0.0 | 1.7 | 0.00 | 0.19 | 0.19 | 80 | 1005.6 |
| 20260504033133 | 35 | 238 | 0.0 | 2.6 | 0.00 | 0.19 | 0.19 | 79 | 1005.6 |
| 20260504032620 | 35 | 238 | 0.9 | 2.6 | 0.00 | 0.19 | 0.19 | 79 | 1005.6 |
| 20260504031131 | 35 | 260 | 0.9 | 1.7 | 0.00 | 0.19 | 0.19 | 78 | 1005.6 |
| 20260504030131 | 36 | 260 | 0.0 | 1.7 | 0.00 | 0.19 | 0.19 | 77 | 1005.6 |
| 20260504025130 | 37 | 260 | 0.0 | 2.6 | 0.00 | 0.19 | 0.19 | 75 | 1005.5 |
| 20260504024130 | 37 | 271 | 0.0 | 1.7 | 0.00 | 0.19 | 0.19 | 73 | 1005.4 |
| 20260504023131 | 38 | 271 | 0.0 | 1.7 | 0.00 | 0.19 | 0.19 | 70 | 1005.3 |
| 20260504022131 | 39 | 271 | 0.0 | 1.7 | 0.00 | 0.19 | 0.19 | 68 | 1005.4 |
| 20260504021130 | 40 | 271 | 0.0 | 1.7 | 0.00 | 0.20 | 0.19 | 66 | 1005.4 |
| 20260504020130 | 41 | 271 | 0.9 | 3.5 | 0.00 | 0.20 | 0.19 | 65 | 1005.3 |
| 20260504015131 | 41 | 242 | 0.9 | 3.5 | 0.00 | 0.20 | 0.19 | 64 | 1005.3 |
| 20260504014130 | 42 | 267 | 0.9 | 4.3 | 0.00 | 0.20 | 0.19 | 63 | 1005.3 |
| 20260504013614 | 42 | 319 | 0.9 | 7.8 | 0.00 | 0.20 | 0.19 | 63 | 1005.3 |
| 20260504012131 | 43 | 294 | 2.6 | 7.8 | 0.00 | 0.20 | 0.19 | 61 | 1005.1 |